Location: Napier
(39.4830°S, 176.9170°E)
Time: 14:57:49
(UTC+12:00)

Cosmos 1833 - Pass Details

Date: 15 August 2020
Orbit: 836 x 863 km, 70.9° (Epoch: 23 September)

Event Time Altitude Azimuth Distance (km) Brightness Sun altitude
Rises 19:49:56 0° 204° (SSW) 3,444 7.7 -26.7°
Reaches altitude 10° 19:52:24 10° 203° (SSW) 2,498 6.9 -27.1°
Enters shadow 19:57:59 84° 192° (SSW) 859 4.1 -28.2°
